| time (UTC) | temp C | wind direction | speed KPH | gust KPH | rain 1hr cm | rain 24hr cm | rain mn cm | humidity % | barometer mb |
| 20260505102010 | 12 | 0 | 0.0 | 0.0 | 0.00 | 0.03 | 0.03 | 97 | 1011.1 |
| 20260505101510 | 12 | 0 | 0.0 | 0.0 | 0.00 | 0.03 | 0.03 | 97 | 1011.1 |
| 20260505101011 | 12 | 0 | 0.0 | 0.0 | 0.00 | 0.03 | 0.03 | 97 | 1011.1 |
| 20260505100510 | 12 | 0 | 0.0 | 0.0 | 0.00 | 0.03 | 0.03 | 97 | 1011.1 |
| 20260505095510 | 12 | 0 | 0.0 | 0.0 | 0.00 | 0.03 | 0.03 | 97 | 1011.1 |
| 20260505095010 | 12 | 0 | 0.0 | 0.0 | 0.00 | 0.03 | 0.03 | 97 | 1011.1 |
| 20260505094510 | 12 | 0 | 0.0 | 4.8 | 0.00 | 0.03 | 0.03 | 97 | 1011.1 |
| 20260505094010 | 12 | 0 | 0.0 | 4.8 | 0.00 | 0.03 | 0.03 | 97 | 1011.0 |
| 20260505093510 | 12 | 182 | 0.0 | 4.8 | 0.00 | 0.03 | 0.03 | 97 | 1011.0 |
| 20260505093012 | 12 | 0 | 0.0 | 0.0 | 0.00 | 0.03 | 0.03 | 97 | 1011.0 |
| 20260505092511 | 12 | 0 | 0.0 | 0.0 | 0.00 | 0.03 | 0.03 | 97 | 1011.0 |
| 20260505092011 | 12 | 0 | 0.0 | 0.0 | 0.00 | 0.03 | 0.03 | 97 | 1011.0 |
| 20260505091510 | 12 | 0 | 0.0 | 0.0 | 0.00 | 0.03 | 0.03 | 97 | 1011.0 |
| 20260505091011 | 12 | 0 | 0.0 | 0.0 | 0.00 | 0.03 | 0.03 | 97 | 1011.0 |
| 20260505090510 | 12 | 0 | 0.0 | 0.0 | 0.00 | 0.03 | 0.03 | 97 | 1010.9 |
| 20260505090011 | 12 | 0 | 0.0 | 0.0 | 0.00 | 0.03 | 0.03 | 97 | 1011.0 |
| 20260505085510 | 12 | 0 | 0.0 | 0.0 | 0.00 | 0.03 | 0.03 | 97 | 1010.9 |
| 20260505085011 | 12 | 0 | 0.0 | 0.0 | 0.00 | 0.03 | 0.03 | 97 | 1010.9 |
| 20260505084514 | 12 | 0 | 0.0 | 0.0 | 0.00 | 0.03 | 0.03 | 97 | 1010.9 |
| 20260505084010 | 12 | 0 | 0.0 | 0.0 | 0.00 | 0.03 | 0.03 | 97 | 1010.9 |
| 20260505083510 | 12 | 0 | 0.0 | 0.0 | 0.00 | 0.03 | 0.03 | 97 | 1010.8 |
| 20260505083011 | 12 | 0 | 0.0 | 0.0 | 0.00 | 0.03 | 0.03 | 97 | 1010.9 |
| 20260505082510 | 12 | 0 | 0.0 | 0.0 | 0.00 | 0.03 | 0.03 | 97 | 1010.9 |
| 20260505082010 | 12 | 0 | 0.0 | 0.0 | 0.00 | 0.03 | 0.03 | 97 | 1010.8 |
| 20260505081510 | 12 | 0 | 0.0 | 0.0 | 0.00 | 0.03 | 0.03 | 97 | 1010.8 |
| 20260505081010 | 12 | 0 | 0.0 | 0.0 | 0.00 | 0.03 | 0.03 | 97 | 1010.7 |
| 20260505080510 | 12 | 0 | 0.0 | 0.0 | 0.03 | 0.03 | 0.03 | 97 | 1010.6 |
| 20260505080010 | 12 | 0 | 0.0 | 0.0 | 0.03 | 0.03 | 0.03 | 97 | 1010.7 |
| 20260505075511 | 12 | 0 | 0.0 | 0.0 | 0.03 | 0.03 | 0.03 | 97 | 1010.7 |
| 20260505075010 | 12 | 0 | 0.0 | 0.0 | 0.03 | 0.03 | 0.03 | 97 | 1010.6 |
| 20260505074510 | 12 | 0 | 0.0 | 0.0 | 0.03 | 0.03 | 0.03 | 96 | 1010.6 |
| 20260505074011 | 12 | 0 | 0.0 | 0.0 | 0.03 | 0.03 | 0.03 | 96 | 1010.6 |
| 20260505073510 | 12 | 0 | 0.0 | 0.0 | 0.03 | 0.03 | 0.03 | 96 | 1010.6 |
| 20260505073010 | 12 | 0 | 0.0 | 0.0 | 0.03 | 0.03 | 0.03 | 96 | 1010.5 |
| 20260505072510 | 12 | 0 | 0.0 | 0.0 | 0.03 | 0.03 | 0.03 | 96 | 1010.6 |
| 20260505072011 | 12 | 0 | 0.0 | 0.0 | 0.03 | 0.03 | 0.03 | 96 | 1010.5 |
| 20260505071510 | 12 | 0 | 0.0 | 0.0 | 0.03 | 0.03 | 0.03 | 96 | 1010.5 |
| 20260505071010 | 12 | 0 | 0.0 | 0.0 | 0.03 | 0.03 | 0.03 | 96 | 1010.5 |
| 20260505070510 | 12 | 0 | 0.0 | 0.0 | 0.00 | 0.03 | 0.03 | 96 | 1010.6 |
| 20260505070010 | 12 | 0 | 0.0 | 0.0 | 0.00 | 0.00 | 0.00 | 96 | 1010.6 |
| 20260505065510 | 12 | 0 | 0.0 | 0.0 | 0.00 | 0.00 | 0.00 | 96 | 1010.7 |
| 20260505065011 | 12 | 0 | 0.0 | 0.0 | 0.00 | 0.00 | 0.00 | 96 | 1010.7 |
| 20260505064510 | 12 | 0 | 0.0 | 0.0 | 0.00 | 0.00 | 0.00 | 96 | 1010.7 |
| 20260505064012 | 12 | 0 | 0.0 | 0.0 | 0.00 | 0.00 | 0.00 | 96 | 1010.7 |
| 20260505063511 | 12 | 0 | 0.0 | 0.0 | 0.00 | 0.00 | 0.00 | 96 | 1010.7 |
| 20260505063010 | 12 | 0 | 0.0 | 0.0 | 0.00 | 0.00 | 0.00 | 96 | 1010.7 |
| 20260505062510 | 12 | 0 | 0.0 | 0.0 | 0.00 | 0.00 | 0.00 | 96 | 1010.6 |
| 20260505062011 | 12 | 0 | 0.0 | 0.0 | 0.00 | 0.00 | 0.00 | 96 | 1010.6 |
| 20260505061511 | 12 | 0 | 0.0 | 0.0 | 0.00 | 0.00 | 0.00 | 96 | 1010.6 |
| 20260505061010 | 12 | 0 | 0.0 | 0.0 | 0.00 | 0.00 | 0.00 | 96 | 1010.7 |
| 20260505060510 | 12 | 0 | 0.0 | 0.0 | 0.00 | 0.00 | 0.00 | 96 | 1010.6 |
| 20260505060010 | 12 | 0 | 0.0 | 0.0 | 0.00 | 0.00 | 0.00 | 96 | 1010.7 |
| 20260505055510 | 12 | 0 | 0.0 | 0.0 | 0.00 | 0.00 | 0.00 | 95 | 1010.7 |
| 20260505055010 | 12 | 0 | 0.0 | 0.0 | 0.00 | 0.00 | 0.00 | 95 | 1010.7 |
| 20260505054510 | 12 | 0 | 0.0 | 0.0 | 0.00 | 0.00 | 0.00 | 95 | 1010.7 |
| 20260505054012 | 12 | 0 | 0.0 | 0.0 | 0.00 | 0.00 | 0.00 | 95 | 1010.7 |
| 20260505053510 | 13 | 0 | 0.0 | 0.0 | 0.00 | 0.00 | 0.00 | 95 | 1010.7 |
| 20260505053011 | 13 | 0 | 0.0 | 0.0 | 0.00 | 0.00 | 0.00 | 95 | 1010.7 |
| 20260505052510 | 13 | 0 | 0.0 | 0.0 | 0.00 | 0.00 | 0.00 | 95 | 1010.7 |
| 20260505052010 | 13 | 0 | 0.0 | 0.0 | 0.00 | 0.00 | 0.00 | 95 | 1010.7 |
| 20260505051510 | 13 | 0 | 0.0 | 0.0 | 0.00 | 0.00 | 0.00 | 95 | 1010.8 |
| 20260505051010 | 13 | 0 | 0.0 | 9.7 | 0.00 | 0.00 | 0.00 | 95 | 1010.7 |
| 20260505050510 | 13 | 205 | 0.0 | 9.7 | 0.00 | 0.00 | 0.00 | 94 | 1010.8 |
| 20260505041510 | 13 | 0 | 0.0 | 8.0 | 0.00 | 0.00 | 0.00 | 91 | 1010.4 |
| 20260505041010 | 13 | 0 | 0.0 | 8.0 | 0.00 | 0.00 | 0.00 | 91 | 1010.3 |
| 20260505040510 | 13 | 217 | 0.0 | 8.0 | 0.00 | 0.00 | 0.00 | 90 | 1010.3 |
| 20260505040010 | 13 | 245 | 1.6 | 14.5 | 0.00 | 0.00 | 0.00 | 90 | 1010.2 |
| 20260505035512 | 13 | 211 | 3.2 | 14.5 | 0.00 | 0.00 | 0.00 | 90 | 1010.2 |
| 20260505035010 | 13 | 271 | 0.0 | 14.5 | 0.00 | 0.00 | 0.00 | 89 | 1010.2 |
| 20260505034510 | 13 | 170 | 0.0 | 8.0 | 0.00 | 0.00 | 0.00 | 88 | 1010.1 |
| 20260505034010 | 13 | 170 | 0.0 | 8.0 | 0.00 | 0.00 | 0.00 | 88 | 1010.0 |
| 20260505033510 | 13 | 0 | 0.0 | 0.0 | 0.00 | 0.00 | 0.00 | 87 | 1010.0 |
| 20260505033010 | 13 | 0 | 0.0 | 4.8 | 0.00 | 0.00 | 0.00 | 87 | 1009.9 |
| 20260505032510 | 13 | 0 | 0.0 | 4.8 | 0.00 | 0.00 | 0.00 | 87 | 1009.8 |
| 20260505032011 | 13 | 117 | 0.0 | 4.8 | 0.00 | 0.00 | 0.00 | 87 | 1009.8 |
| 20260505031510 | 13 | 0 | 0.0 | 9.7 | 0.00 | 0.00 | 0.00 | 86 | 1009.7 |
| 20260505031011 | 13 | 0 | 0.0 | 9.7 | 0.00 | 0.00 | 0.00 | 86 | 1009.7 |
| 20260505030510 | 13 | 204 | 0.0 | 9.7 | 0.00 | 0.00 | 0.00 | 86 | 1009.7 |
| 20260505030010 | 13 | 0 | 0.0 | 0.0 | 0.00 | 0.00 | 0.00 | 85 | 1009.7 |
| 20260505025510 | 13 | 0 | 0.0 | 0.0 | 0.00 | 0.00 | 0.00 | 85 | 1009.7 |
| 20260505025010 | 13 | 0 | 0.0 | 11.3 | 0.00 | 0.00 | 0.00 | 84 | 1009.6 |
| 20260505024510 | 13 | 0 | 0.0 | 11.3 | 0.00 | 0.00 | 0.00 | 84 | 1009.6 |
| 20260505024010 | 13 | 186 | 0.0 | 11.3 | 0.00 | 0.00 | 0.00 | 85 | 1009.6 |
| 20260505023510 | 13 | 205 | 1.6 | 9.7 | 0.00 | 0.00 | 0.00 | 84 | 1009.7 |
| 20260505023011 | 13 | 225 | 0.0 | 9.7 | 0.00 | 0.00 | 0.00 | 84 | 1009.7 |
| 20260505022510 | 13 | 204 | 1.6 | 8.0 | 0.00 | 0.00 | 0.00 | 84 | 1009.8 |
| 20260505022010 | 14 | 189 | 0.0 | 12.9 | 0.00 | 0.00 | 0.00 | 83 | 1009.8 |
| 20260505021510 | 14 | 204 | 1.6 | 12.9 | 0.00 | 0.00 | 0.00 | 83 | 1009.9 |
| 20260505021011 | 14 | 264 | 1.6 | 12.9 | 0.00 | 0.00 | 0.00 | 82 | 1009.9 |
| 20260505020510 | 14 | 186 | 0.0 | 12.9 | 0.00 | 0.00 | 0.00 | 81 | 1009.9 |
| 20260505015510 | 14 | 303 | 0.0 | 12.9 | 0.00 | 0.00 | 0.00 | 80 | 1009.9 |
| 20260505015010 | 14 | 212 | 4.8 | 12.9 | 0.00 | 0.00 | 0.00 | 80 | 1009.8 |
| 20260505014512 | 15 | 180 | 4.8 | 9.7 | 0.00 | 0.00 | 0.00 | 80 | 1009.9 |
| 20260505014010 | 15 | 207 | 3.2 | 9.7 | 0.00 | 0.00 | 0.00 | 79 | 1009.8 |
| 20260505013510 | 15 | 197 | 4.8 | 20.9 | 0.00 | 0.00 | 0.00 | 79 | 1009.8 |
| 20260505013010 | 15 | 218 | 6.4 | 20.9 | 0.00 | 0.00 | 0.00 | 78 | 1009.9 |
| 20260505012510 | 15 | 210 | 9.7 | 20.9 | 0.00 | 0.00 | 0.00 | 78 | 1009.9 |
| 20260505012010 | 15 | 252 | 4.8 | 17.7 | 0.00 | 0.00 | 0.00 | 78 | 1010.0 |
| 20260505011510 | 15 | 207 | 11.3 | 19.3 | 0.00 | 0.00 | 0.00 | 78 | 1010.0 |
| 20260505011011 | 15 | 267 | 8.0 | 19.3 | 0.00 | 0.00 | 0.00 | 77 | 1010.1 |
| 20260505010510 | 15 | 273 | 9.7 | 19.3 | 0.00 | 0.00 | 0.00 | 77 | 1010.2 |
| 20260505010010 | 15 | 184 | 11.3 | 16.1 | 0.00 | 0.00 | 0.00 | 77 | 1010.1 |
| 20260505005604 | 15 | 271 | 6.4 | 17.7 | 0.00 | 0.00 | 0.00 | 78 | 1010.0 |
| 20260505005512 | 15 | 271 | 6.4 | 17.7 | 0.00 | 0.00 | 0.00 | 78 | 1010.0 |
| 20260505005010 | 15 | 204 | 9.7 | 17.7 | 0.00 | 0.00 | 0.00 | 77 | 1010.0 |
| 20260505004510 | 15 | 282 | 6.4 | 17.7 | 0.00 | 0.00 | 0.00 | 78 | 1010.0 |
| 20260505004010 | 15 | 281 | 8.0 | 17.7 | 0.00 | 0.00 | 0.00 | 77 | 1010.1 |
| 20260505003510 | 15 | 291 | 8.0 | 17.7 | 0.00 | 0.00 | 0.00 | 78 | 1010.1 |
| 20260505002510 | 16 | 256 | 8.0 | 16.1 | 0.00 | 0.00 | 0.00 | 77 | 1010.2 |
| 20260505002010 | 16 | 260 | 6.4 | 19.3 | 0.00 | 0.00 | 0.00 | 77 | 1010.2 |
| 20260505001510 | 16 | 191 | 4.8 | 19.3 | 0.00 | 0.00 | 0.00 | 78 | 1010.2 |
| 20260505001010 | 16 | 207 | 8.0 | 19.3 | 0.00 | 0.00 | 0.00 | 77 | 1010.3 |
| 20260505000510 | 16 | 194 | 9.7 | 16.1 | 0.00 | 0.00 | 0.00 | 77 | 1010.4 |
| 20260505000010 | 16 | 257 | 8.0 | 22.5 | 0.00 | 0.00 | 0.00 | 77 | 1010.5 |
| 20260504235510 | 16 | 267 | 8.0 | 22.5 | 0.00 | 0.00 | 0.00 | 77 | 1010.5 |
| 20260504235010 | 16 | 280 | 8.0 | 22.5 | 0.00 | 0.00 | 0.00 | 77 | 1010.5 |
| 20260504234510 | 16 | 252 | 8.0 | 17.7 | 0.00 | 0.00 | 0.00 | 78 | 1010.5 |
| 20260504234010 | 16 | 217 | 9.7 | 17.7 | 0.00 | 0.00 | 0.00 | 77 | 1010.5 |
| 20260504233510 | 16 | 308 | 9.7 | 16.1 | 0.00 | 0.00 | 0.00 | 78 | 1010.5 |
| 20260504233010 | 16 | 312 | 6.4 | 16.1 | 0.00 | 0.00 | 0.00 | 78 | 1010.5 |
| 20260504232512 | 16 | 242 | 9.7 | 16.1 | 0.00 | 0.00 | 0.00 | 77 | 1010.5 |
| 20260504232010 | 16 | 198 | 8.0 | 22.5 | 0.00 | 0.00 | 0.00 | 77 | 1010.4 |
| 20260504231510 | 16 | 266 | 6.4 | 22.5 | 0.00 | 0.00 | 0.00 | 77 | 1010.4 |
| 20260504231010 | 16 | 261 | 6.4 | 22.5 | 0.00 | 0.00 | 0.00 | 77 | 1010.5 |
| 20260504230511 | 16 | 256 | 8.0 | 20.9 | 0.00 | 0.00 | 0.00 | 77 | 1010.5 |
| 20260504230010 | 16 | 236 | 8.0 | 20.9 | 0.00 | 0.00 | 0.00 | 75 | 1010.4 |
| 20260504225512 | 16 | 263 | 9.7 | 22.5 | 0.00 | 0.00 | 0.00 | 74 | 1010.4 |
| 20260504225010 | 16 | 259 | 11.3 | 22.5 | 0.00 | 0.00 | 0.00 | 74 | 1010.4 |
| 20260504224511 | 16 | 208 | 11.3 | 22.5 | 0.00 | 0.00 | 0.00 | 74 | 1010.4 |
| 20260504224010 | 16 | 298 | 11.3 | 22.5 | 0.00 | 0.00 | 0.00 | 73 | 1010.5 |
| 20260504223510 | 16 | 266 | 14.5 | 22.5 | 0.00 | 0.00 | 0.00 | 74 | 1010.5 |
| 20260504223010 | 16 | 259 | 11.3 | 24.1 | 0.00 | 0.00 | 0.00 | 75 | 1010.5 |
| 20260504222510 | 16 | 245 | 12.9 | 24.1 | 0.00 | 0.00 | 0.00 | 74 | 1010.6 |
| 20260504222010 | 16 | 232 | 12.9 | 24.1 | 0.00 | 0.00 | 0.00 | 75 | 1010.6 |
| 20260504221510 | 17 | 231 | 11.3 | 22.5 | 0.00 | 0.00 | 0.00 | 75 | 1010.6 |
| 20260504221010 | 17 | 250 | 9.7 | 19.3 | 0.00 | 0.00 | 0.00 | 76 | 1010.7 |
| 20260504220510 | 17 | 256 | 11.3 | 19.3 | 0.00 | 0.00 | 0.00 | 75 | 1010.6 |
| 20260504220010 | 17 | 239 | 11.3 | 19.3 | 0.00 | 0.00 | 0.00 | 75 | 1010.7 |
| 20260504215510 | 17 | 211 | 9.7 | 24.1 | 0.00 | 0.00 | 0.00 | 76 | 1010.7 |
| 20260504215010 | 17 | 270 | 11.3 | 24.1 | 0.00 | 0.00 | 0.00 | 74 | 1010.7 |
| 20260504214510 | 17 | 246 | 11.3 | 24.1 | 0.00 | 0.00 | 0.00 | 75 | 1010.7 |
| 20260504214010 | 17 | 247 | 8.0 | 22.5 | 0.00 | 0.00 | 0.00 | 75 | 1010.8 |
| 20260504213510 | 17 | 261 | 14.5 | 24.1 | 0.00 | 0.00 | 0.00 | 73 | 1010.8 |
| 20260504213010 | 17 | 250 | 11.3 | 24.1 | 0.00 | 0.00 | 0.00 | 74 | 1010.8 |
| 20260504212510 | 17 | 229 | 11.3 | 24.1 | 0.00 | 0.00 | 0.00 | 76 | 1010.8 |
| 20260504212011 | 17 | 257 | 11.3 | 20.9 | 0.00 | 0.00 | 0.00 | 74 | 1010.8 |
| 20260504211510 | 17 | 245 | 11.3 | 20.9 | 0.00 | 0.00 | 0.00 | 75 | 1010.8 |
| 20260504211010 | 17 | 254 | 11.3 | 20.9 | 0.00 | 0.00 | 0.00 | 75 | 1010.8 |
| 20260504210510 | 17 | 224 | 12.9 | 22.5 | 0.00 | 0.00 | 0.00 | 74 | 1010.9 |
| 20260504210009 | 17 | 287 | 9.7 | 22.5 | 0.00 | 0.00 | 0.00 | 77 | 1010.9 |
| 20260504205511 | 16 | 268 | 14.5 | 22.5 | 0.00 | 0.00 | 0.00 | 78 | 1010.9 |
| 20260504205010 | 16 | 236 | 8.0 | 22.5 | 0.00 | 0.00 | 0.00 | 78 | 1011.0 |
| 20260504204510 | 16 | 261 | 9.7 | 22.5 | 0.00 | 0.00 | 0.00 | 78 | 1010.9 |
| 20260504203510 | 16 | 271 | 8.0 | 25.7 | 0.00 | 0.00 | 0.00 | 80 | 1011.0 |
| 20260504203010 | 16 | 266 | 9.7 | 25.7 | 0.00 | 0.00 | 0.00 | 80 | 1011.0 |
| 20260504202509 | 16 | 259 | 8.0 | 25.7 | 0.00 | 0.00 | 0.00 | 80 | 1011.1 |
| 20260504202010 | 16 | 259 | 6.4 | 19.3 | 0.00 | 0.00 | 0.00 | 82 | 1011.0 |
| 20260504201510 | 15 | 243 | 11.3 | 22.5 | 0.00 | 0.00 | 0.00 | 82 | 1011.1 |
| 20260504201009 | 15 | 306 | 9.7 | 22.5 | 0.00 | 0.00 | 0.00 | 82 | 1011.1 |
| 20260504200509 | 15 | 204 | 9.7 | 22.5 | 0.00 | 0.00 | 0.00 | 83 | 1011.1 |
| 20260504200011 | 15 | 246 | 11.3 | 17.7 | 0.00 | 0.00 | 0.00 | 82 | 1011.1 |
| 20260504195509 | 15 | 261 | 6.4 | 17.7 | 0.00 | 0.00 | 0.00 | 83 | 1011.1 |
| 20260504195009 | 15 | 236 | 11.3 | 27.4 | 0.00 | 0.00 | 0.00 | 84 | 1011.0 |
| 20260504194510 | 15 | 225 | 11.3 | 27.4 | 0.00 | 0.00 | 0.00 | 84 | 1011.0 |
| 20260504194009 | 15 | 224 | 11.3 | 27.4 | 0.00 | 0.00 | 0.00 | 84 | 1011.1 |
| 20260504193510 | 15 | 287 | 8.0 | 17.7 | 0.00 | 0.00 | 0.00 | 84 | 1011.0 |
| 20260504193011 | 15 | 252 | 6.4 | 20.9 | 0.00 | 0.00 | 0.00 | 84 | 1010.9 |
| 20260504192510 | 15 | 259 | 6.4 | 20.9 | 0.00 | 0.00 | 0.00 | 84 | 1011.0 |
| 20260504192009 | 15 | 274 | 9.7 | 20.9 | 0.00 | 0.00 | 0.00 | 84 | 1010.9 |
| 20260504191510 | 15 | 221 | 9.7 | 17.7 | 0.00 | 0.00 | 0.00 | 85 | 1010.9 |
| 20260504191009 | 15 | 298 | 11.3 | 19.3 | 0.00 | 0.00 | 0.00 | 84 | 1010.9 |
| 20260504190509 | 15 | 246 | 11.3 | 19.3 | 0.00 | 0.00 | 0.00 | 84 | 1010.9 |
| 20260504190009 | 15 | 264 | 11.3 | 19.3 | 0.00 | 0.00 | 0.00 | 84 | 1010.9 |
| 20260504185509 | 15 | 268 | 9.7 | 16.1 | 0.00 | 0.00 | 0.00 | 85 | 1010.9 |
| 20260504185010 | 15 | 243 | 8.0 | 16.1 | 0.00 | 0.00 | 0.00 | 86 | 1010.9 |
| 20260504184510 | 15 | 249 | 8.0 | 20.9 | 0.00 | 0.00 | 0.00 | 87 | 1010.9 |
| 20260504184010 | 15 | 249 | 6.4 | 20.9 | 0.00 | 0.00 | 0.00 | 87 | 1010.9 |
| 20260504183509 | 15 | 212 | 6.4 | 20.9 | 0.00 | 0.00 | 0.00 | 88 | 1010.9 |
| 20260504183009 | 15 | 191 | 9.7 | 19.3 | 0.00 | 0.00 | 0.00 | 87 | 1010.8 |
| 20260504182509 | 14 | 214 | 9.7 | 19.3 | 0.00 | 0.00 | 0.00 | 88 | 1010.7 |
| 20260504182009 | 14 | 170 | 4.8 | 19.3 | 0.00 | 0.00 | 0.00 | 88 | 1010.7 |
| 20260504181510 | 14 | 194 | 8.0 | 14.5 | 0.00 | 0.00 | 0.00 | 88 | 1010.6 |
| 20260504181009 | 14 | 240 | 6.4 | 14.5 | 0.00 | 0.00 | 0.00 | 89 | 1010.7 |
| 20260504180509 | 14 | 203 | 4.8 | 16.1 | 0.00 | 0.00 | 0.00 | 89 | 1010.6 |
| 20260504180009 | 14 | 187 | 6.4 | 16.1 | 0.00 | 0.00 | 0.00 | 90 | 1010.6 |
| 20260504175509 | 14 | 261 | 8.0 | 16.1 | 0.00 | 0.00 | 0.00 | 90 | 1010.5 |
| 20260504175010 | 14 | 200 | 1.6 | 16.1 | 0.00 | 0.00 | 0.00 | 90 | 1010.5 |
| 20260504174509 | 14 | 233 | 4.8 | 11.3 | 0.00 | 0.00 | 0.00 | 90 | 1010.5 |
| 20260504174010 | 14 | 194 | 8.0 | 11.3 | 0.00 | 0.00 | 0.00 | 92 | 1010.6 |
| 20260504173510 | 14 | 224 | 1.6 | 11.3 | 0.00 | 0.00 | 0.00 | 92 | 1010.6 |
| 20260504173009 | 13 | 260 | 1.6 | 11.3 | 0.00 | 0.00 | 0.00 | 93 | 1010.5 |
| 20260504172510 | 13 | 242 | 0.0 | 11.3 | 0.00 | 0.00 | 0.00 | 94 | 1010.6 |
| 20260504172009 | 13 | 198 | 0.0 | 14.5 | 0.00 | 0.00 | 0.00 | 94 | 1010.5 |
| 20260504171509 | 13 | 173 | 3.2 | 14.5 | 0.00 | 0.00 | 0.00 | 94 | 1010.5 |
| 20260504171009 | 13 | 315 | 0.0 | 14.5 | 0.00 | 0.00 | 0.00 | 95 | 1010.5 |
| 20260504170509 | 13 | 247 | 0.0 | 16.1 | 0.00 | 0.00 | 0.00 | 95 | 1010.4 |
| 20260504151009 | 13 | 0 | 0.0 | 0.0 | 0.00 | 0.00 | 0.00 | 96 | 1010.1 |
| 20260504150509 | 13 | 0 | 0.0 | 3.2 | 0.00 | 0.00 | 0.00 | 96 | 1010.1 |
| 20260504141009 | 12 | 0 | 0.0 | 0.0 | 0.00 | 0.00 | 0.00 | 95 | 1009.5 |
| 20260504140509 | 12 | 0 | 0.0 | 3.2 | 0.00 | 0.00 | 0.00 | 95 | 1009.4 |
| 20260504130509 | 12 | 198 | 0.0 | 8.0 | 0.00 | 0.00 | 0.00 | 95 | 1008.9 |
| 20260504110509 | 12 | 0 | 0.0 | 0.0 | 0.00 | 0.00 | 0.00 | 96 | 1008.9 |